Theta_e
307 308 308 308 308 308 307 306 306 306 306 307 306 307 306 303 303 312 313 308 308 304 304 310 313 315 322 325 328 329 331 331 329 327 326 325 324 325 328 328 329 333 336 336 338
307 307 307 307 307 307 306 305 306 306 307 307 307 306 306 303 312 312 311 304 307 306 311 312 314 315 323 325 328 330 332 331 329 328 326 325 324 325 325 327 330 335 335 333 336
307 307 307 307 307 307 303 305 306 306 308 308 307 306 304 308 315 316 309 311 307 307 311 312 313 315 317 324 325 329 332 330 329 328 328 327 324 325 325 327 330 333 335 334 334
306 307 307 307 306 303 303 305 306 306 307 306 305 305 305 313 313 312 309 309 307 310 310 314 315 316 315 318 324 327 327 329 330 329 329 328 324 324 325 327 327 331 335 334 333
306 306 306 306 305 302 303 305 306 306 306 307 306 306 313 315 312 310 310 312 312 310 311 312 314 317 317 317 319 322 325 326 327 329 329 329 328 326 326 326 327 327 331 333 333
305 306 306 305 302 302 304 306 306 306 306 306 307 309 316 314 310 311 311 311 313 312 312 312 311 315 317 318 318 319 321 322 323 326 327 329 329 329 329 327 327 327 326 329 331
304 303 304 301 300 302 304 305 305 305 306 306 307 313 316 311 310 311 311 312 312 311 312 312 312 311 315 318 318 318 319 319 321 323 324 327 329 330 329 329 330 329 329 330 332
302 302 303 303 300 302 304 305 305 305 306 307 307 315 315 309 309 309 310 310 311 311 312 311 311 312 311 312 314 317 319 320 320 321 322 323 327 328 328 330 331 331 331 331 332
299 299 300 301 300 303 304 305 306 306 307 307 315 316 314 309 309 309 309 310 309 310 311 311 312 313 312 311 311 313 318 320 319 320 321 321 325 325 326 329 330 331 332 332 332
300 300 299 301 300 303 305 308 310 311 314 314 313 314 312 310 309 309 309 309 310 311 312 312 313 314 314 313 312 313 314 315 318 319 320 320 323 323 324 326 329 330 330 331 331
304 302 301 301 301 304 307 313 315 317 312 311 312 310 310 310 309 309 309 309 311 312 313 313 312 314 315 314 314 314 313 314 316 318 319 319 321 322 323 324 325 327 329 332 332
305 304 303 304 301 306 309 312 311 311 312 312 310 310 309 310 310 310 309 309 310 311 311 312 312 313 312 312 312 312 312 314 314 315 318 321 321 321 322 324 325 325 327 328 329
305 306 303 305 303 309 310 311 310 311 314 312 310 311 311 309 310 310 310 309 310 310 310 311 311 311 311 311 312 312 313 312 313 315 317 319 320 321 322 322 323 324 325 326 328
304 303 305 302 308 310 312 310 310 311 315 312 311 311 310 310 311 309 309 310 310 310 310 310 310 310 310 310 311 312 312 312 312 312 314 316 321 321 322 323 324 324 325 326 326
305 303 303 303 311 312 311 311 310 312 321 310 310 310 310 311 311 310 308 309 310 310 309 309 310 310 311 311 312 313 312 312 312 312 313 314 317 319 320 323 323 323 324 324 325
305 305 305 304 311 311 311 311 311 319 318 311 311 311 311 311 311 310 309 309 310 310 311 311 313 313 313 315 314 312 313 313 312 312 313 313 316 318 320 321 322 323 323 324 324
305 305 308 310 314 311 311 312 318 318 311 312 311 311 311 311 310 309 309 309 310 311 311 311 312 313 314 314 315 314 315 315 312 314 313 313 314 317 318 320 321 321 322 323 323
305 306 308 311 312 311 312 315 316 311 311 311 311 312 312 310 310 310 310 310 310 310 311 313 313 312 313 314 314 317 315 313 312 312 312 316 316 315 318 320 321 320 320 321 322
307 312 312 313 312 310 313 316 313 311 309 311 312 313 311 310 311 310 311 310 310 310 311 313 313 311 311 313 314 315 317 314 311 312 313 316 316 317 316 318 319 320 321 321 325
308 312 314 311 312 310 315 315 311 309 309 311 313 312 312 311 311 311 310 310 309 309 310 311 313 311 312 313 313 315 314 320 313 314 313 314 316 317 316 316 319 320 322 323 324
310 312 312 310 310 314 316 311 308 308 308 311 313 313 312 312 311 311 311 311 311 310 310 310 313 312 311 312 315 315 314 316 316 317 315 316 319 318 318 317 319 320 322 323 328
310 314 312 307 314 314 313 308 305 308 311 311 312 311 311 311 312 312 312 311 311 310 311 311 314 314 311 311 313 313 313 313 320 318 315 315 319 318 320 322 319 322 321 322 323
310 311 310 309 316 316 312 309 308 309 311 311 311 310 311 311 313 313 312 311 311 312 312 314 313 316 312 312 315 316 315 312 315 316 319 319 320 319 321 322 321 321 321 321 322
310 311 311 310 310 311 312 313 309 308 309 310 311 311 311 312 312 314 312 311 311 312 313 313 314 314 317 313 314 314 314 314 313 316 315 313 315 318 318 318 319 320 321 319 320
310 311 310 310 311 310 311 312 310 309 309 310 310 310 311 312 312 311 312 312 312 312 312 313 319 314 313 312 311 312 311 310 311 311 313 313 312 313 317 317 319 318 318 317 320
309 309 308 307 310 310 309 311 311 310 309 309 310 309 309 311 310 311 311 312 314 313 313 314 316 314 314 312 311 312 311 311 311 311 311 311 311 311 313 314 315 316 316 317 319
304 303 305 308 309 310 309 309 309 308 308 309 309 309 311 311 310 311 311 312 312 314 315 314 315 314 315 312 312 311 311 311 311 311 311 311 311 312 313 314 316 317 316 317 318
Wind_Speed
16 17 18 18 18 18 17 17 15 15 16 17 17 17 17 17 17 16 10 4 6 9 10 15 15 17 17 21 23 18 16 19 24 22 17 12 16 17 16 19 19 10 17 7 10
17 17 18 18 19 18 17 15 15 16 18 18 16 16 15 16 17 13 4 4 6 10 10 12 14 15 15 17 20 21 18 29 22 20 13 14 16 20 18 16 19 14 5 2 8
18 18 18 18 18 18 16 14 15 18 19 17 14 14 14 13 11 7 6 8 13 10 13 10 14 18 22 21 22 25 28 26 24 23 20 16 19 18 22 19 18 19 17 12 3
18 19 19 19 19 17 15 14 16 17 18 13 13 15 13 9 1 7 7 9 6 8 10 12 12 18 23 25 25 28 32 29 28 27 23 17 18 23 25 22 18 19 17 19 9
19 19 20 19 18 16 14 15 16 17 16 16 15 15 9 6 8 3 7 8 8 8 8 10 13 16 24 23 25 32 29 28 28 25 25 26 21 24 26 25 23 21 16 12 14
20 20 21 20 19 15 13 13 15 17 17 15 14 7 8 0 3 5 8 8 6 10 9 9 11 15 20 23 26 26 27 32 31 29 28 28 29 22 29 23 25 23 24 19 20
22 23 22 20 18 15 13 14 17 17 13 10 11 6 13 7 4 7 6 7 6 8 9 11 11 15 11 17 25 25 27 28 29 26 32 29 29 31 29 27 25 25 24 22 24
23 24 23 22 17 15 14 18 18 12 7 6 5 7 3 2 5 7 9 9 5 7 11 12 13 15 18 19 25 23 21 25 34 27 30 23 34 38 29 28 28 29 26 25 25
25 28 25 21 17 15 14 15 7 3 4 5 5 10 4 5 3 11 9 9 13 12 8 10 13 13 14 16 18 21 25 28 29 29 29 28 35 32 32 30 29 28 28 25 27
27 29 26 21 15 13 14 12 8 3 3 7 12 7 6 5 10 12 9 13 12 12 14 13 12 13 13 12 19 21 26 29 30 29 26 31 35 33 28 27 30 29 27 24 26
31 29 27 22 14 8 16 9 6 7 13 11 10 8 6 10 10 13 7 8 12 11 14 10 12 14 16 17 20 22 25 31 30 25 25 30 31 32 30 29 28 26 22 29 29
32 30 28 22 9 5 10 5 5 6 9 11 9 7 7 7 9 9 4 14 14 14 15 13 16 15 15 18 23 22 25 28 27 28 26 24 27 30 29 27 28 28 28 27 22
34 32 28 15 3 6 6 5 5 8 7 3 4 8 5 7 10 13 8 13 13 15 13 14 16 19 19 20 20 20 22 24 26 24 26 28 29 31 30 29 27 27 27 27 26
36 34 20 2 3 2 3 4 8 5 6 10 7 4 7 8 12 6 13 8 12 15 16 15 16 16 15 18 18 22 20 21 22 20 22 25 24 29 26 29 27 27 24 22 22
38 28 14 9 7 3 7 9 8 5 4 5 5 5 7 9 9 4 3 11 15 17 17 18 19 20 22 22 20 22 19 23 23 22 24 29 21 25 26 26 26 26 27 29 29
37 17 5 3 4 4 8 8 6 7 1 5 1 5 11 11 8 9 11 12 18 17 18 17 13 21 15 17 25 21 21 25 23 20 21 28 26 25 24 25 23 18 20 19 22
33 7 2 2 5 5 8 8 6 6 6 2 6 11 14 11 10 4 12 11 10 10 15 17 15 4 5 14 17 24 21 15 17 17 20 23 27 22 24 27 28 16 17 23 12
23 3 3 4 5 6 10 9 4 4 6 9 10 16 12 7 7 7 11 12 6 7 13 9 16 11 3 11 18 16 21 14 17 16 19 15 23 25 25 26 10 10 20 12 13
17 4 8 2 3 7 8 7 5 10 6 10 14 9 8 4 5 13 9 8 7 9 9 13 11 23 18 9 16 19 15 20 18 24 16 15 25 27 30 23 21 18 15 13 5
15 8 4 2 6 10 9 10 9 2 8 8 13 4 12 14 13 11 10 2 6 10 7 15 20 17 13 9 13 15 12 9 13 21 22 20 18 18 30 29 21 17 4 2 8
8 5 6 1 6 7 6 9 8 6 8 6 11 15 15 15 15 15 16 14 7 10 16 18 15 19 20 14 15 11 15 7 9 14 13 15 12 15 16 30 22 8 5 4 7
8 4 4 4 5 2 7 6 5 9 4 7 10 12 11 11 15 16 18 13 12 12 16 19 7 15 21 23 12 17 15 11 5 9 18 15 17 21 31 28 27 11 2 8 11
7 5 3 4 3 7 10 11 5 9 9 4 7 11 14 15 10 12 16 14 13 15 5 8 6 10 14 7 11 10 19 10 7 11 21 11 10 20 8 16 12 7 6 14 13
5 4 3 1 2 6 10 10 8 1 9 7 9 14 14 15 14 11 18 12 12 13 13 11 15 16 16 22 7 9 16 14 14 12 18 16 20 3 26 23 6 5 7 12 14
3 4 5 5 7 10 11 13 10 11 3 8 8 8 11 12 19 20 18 21 20 19 14 4 8 19 21 22 19 22 19 15 18 20 21 22 20 14 12 20 28 15 10 14 13
5 5 8 11 9 8 3 10 10 8 12 15 17 15 11 17 15 24 22 20 12 13 8 4 7 15 20 21 21 22 21 18 19 21 28 24 23 18 17 19 19 18 16 14 13
6 5 5 8 7 7 5 7 9 11 11 10 17 17 19 19 18 20 20 22 21 12 13 6 6 11 18 19 17 17 19 18 18 21 24 24 21 19 18 15 15 15 14 13 12
Wind_Direction
346 342 339 338 336 334 330 327 327 329 328 324 325 321 320 317 320 292 254 10 339 323 298 270 252 241 229 241 230 230 247 251 250 255 246 248 265 255 241 236 238 224 247 17 90
345 341 337 335 332 330 329 331 333 332 329 325 320 322 323 323 310 270 46 79 0 336 291 266 245 229 226 233 234 224 237 241 250 258 280 261 259 264 240 230 248 215 217 205 189
342 338 335 333 331 329 329 328 329 332 329 324 323 327 325 326 281 83 117 302 309 305 284 269 268 266 235 230 226 240 240 249 249 248 257 263 256 261 265 247 225 232 200 203 165
341 337 334 332 332 331 329 325 325 331 335 339 336 328 320 292 13 78 309 321 322 301 282 264 243 240 243 236 236 232 241 250 259 270 274 246 260 268 269 258 254 246 220 187 173
341 337 333 332 330 329 326 319 319 325 324 328 328 335 315 213 49 47 335 325 300 298 280 277 261 254 248 244 245 243 247 249 252 256 261 268 238 254 255 260 265 262 261 211 214
343 338 335 332 330 326 321 312 310 313 313 315 323 334 266 202 337 334 328 317 286 309 312 272 270 270 279 267 251 257 252 253 254 252 249 249 256 253 251 253 258 253 255 247 236
344 342 337 333 331 326 320 312 306 301 294 298 313 303 276 42 334 334 323 320 311 298 292 307 305 273 270 255 249 261 263 265 261 245 248 255 253 244 253 253 248 243 247 252 257
343 342 338 333 332 327 320 321 314 300 281 277 293 267 304 64 348 344 324 324 315 282 270 282 287 280 271 270 276 278 265 252 243 247 249 245 253 249 245 250 248 248 245 243 239
345 343 340 337 333 327 321 328 326 288 254 257 235 230 184 190 333 335 318 318 315 297 289 268 275 275 269 249 255 246 251 248 257 244 239 235 249 249 252 252 246 241 247 243 243
345 342 339 334 332 326 320 312 283 218 198 225 258 251 201 347 331 311 296 303 299 302 284 237 262 251 245 236 247 255 245 248 254 257 246 231 237 245 249 251 248 254 258 254 243
345 340 334 329 328 327 323 269 217 203 226 295 315 290 292 332 303 312 358 301 281 268 274 286 287 260 276 281 278 280 274 276 277 274 244 251 257 247 241 237 249 255 251 230 245
344 337 331 326 320 314 294 349 36 339 297 273 257 263 271 304 295 322 291 310 305 295 300 277 254 263 261 269 278 279 278 272 275 270 278 272 266 264 260 246 247 245 246 252 249
349 336 329 328 290 269 308 21 330 323 264 138 224 241 262 256 307 300 303 305 285 288 295 295 298 306 289 274 270 271 266 274 280 286 273 266 256 263 264 257 256 253 251 253 253
350 341 333 341 271 319 201 340 314 313 270 135 191 157 232 296 273 320 286 284 283 289 300 290 290 270 274 269 269 271 269 273 276 269 259 254 261 249 246 249 251 251 247 249 254
349 342 337 213 328 279 352 323 317 238 264 114 148 57 254 271 312 281 334 277 278 295 294 291 293 285 278 276 279 275 277 274 267 263 267 254 259 254 245 245 241 241 242 242 242
348 346 61 104 228 359 328 324 255 232 357 166 273 259 293 300 290 278 278 242 251 258 259 277 334 286 308 328 297 288 282 271 262 258 253 252 248 252 246 248 259 257 258 256 248
346 335 246 307 359 326 318 261 245 279 117 113 321 314 311 293 307 300 308 296 300 321 307 314 306 246 249 322 294 256 258 261 253 244 252 250 251 246 256 243 249 263 263 242 260
346 285 248 275 305 309 288 259 303 318 332 358 311 303 275 357 317 301 297 292 308 286 306 334 308 323 315 289 301 283 250 244 261 260 257 317 258 246 248 254 254 267 281 273 256
343 249 234 191 288 303 274 262 319 7 359 322 310 301 330 276 253 292 299 328 318 346 318 305 306 318 301 280 296 276 251 253 268 281 270 273 272 277 240 249 250 252 243 219 272
329 280 192 264 274 283 259 268 293 4 309 303 295 306 315 321 311 320 311 10 279 279 292 294 295 303 295 289 248 251 281 258 239 260 263 267 263 258 204 231 217 229 167 274 266
288 273 92 325 272 247 274 312 332 336 314 301 316 308 305 314 308 309 303 309 331 329 310 301 297 290 292 264 279 249 246 189 262 231 271 269 277 350 236 203 217 200 102 318 306
304 280 77 333 257 212 267 8 318 286 262 268 286 304 299 317 308 300 297 309 313 324 311 305 289 286 279 283 219 262 266 313 233 286 264 275 284 306 298 185 199 110 76 332 329
312 293 132 292 310 327 316 309 269 289 292 308 279 295 301 300 298 281 295 310 310 313 325 357 284 305 292 247 32 354 311 280 282 269 264 270 276 314 324 104 114 120 18 335 335
294 300 166 123 151 303 325 311 314 258 289 294 308 295 288 291 296 278 290 302 298 287 287 294 261 257 269 288 244 237 233 254 275 264 276 262 258 290 308 309 185 61 35 328 316
285 42 12 306 335 327 301 299 294 297 260 274 286 298 303 302 303 295 301 314 309 299 281 211 266 273 272 277 278 277 283 271 266 269 267 283 284 282 240 283 301 329 318 317 312
333 346 345 292 284 283 295 301 312 327 326 308 293 308 307 282 282 291 295 295 293 299 300 242 275 289 288 280 267 264 262 257 259 268 273 274 278 277 263 265 277 283 292 296 307
4 320 313 298 294 289 331 314 310 326 296 293 317 306 289 293 302 296 284 275 268 244 270 261 280 288 280 276 286 270 271 266 261 262 260 266 272 275 277 279 283 291 282 281 285